Total_Precipitation_Accumulation
0.01 0.01 0.01 0.01 0.00 0.00 0.00 0.01 0.01 0.01 0.06 0.12 0.16 0.16 0.13 0.15 0.31 0.13 0.02 0.00 0.00 0.00 0.00 0.00 0.00 0.01 0.05 0.19 0.25 0.35 0.41 0.49 0.35 0.13 0.06 0.01 0.02 0.00 0.00 0.00 0.00 0.00 0.00 0.00 0.00
0.01 0.01 0.01 0.01 0.01 0.00 0.01 0.04 0.02 0.01 0.03 0.07 0.11 0.21 0.21 0.14 0.14 0.10 0.02 0.00 0.00 0.00 0.00 0.00 0.01 0.03 0.05 0.19 0.22 0.40 0.73 0.49 0.46 0.18 0.08 0.05 0.02 0.00 0.00 0.00 0.00 0.00 0.00 0.00 0.00
0.02 0.01 0.01 0.01 0.01 0.01 0.02 0.04 0.01 0.01 0.02 0.00 0.03 0.10 0.16 0.08 0.05 0.03 0.01 0.01 0.03 0.01 0.01 0.00 0.00 0.05 0.09 0.15 0.21 0.27 0.43 0.49 0.37 0.32 0.15 0.12 0.06 0.02 0.00 0.00 0.00 0.00 0.00 0.00 0.00
0.02 0.02 0.02 0.02 0.01 0.01 0.01 0.02 0.01 0.00 0.00 0.00 0.00 0.06 0.12 0.07 0.03 0.01 0.01 0.00 0.09 0.08 0.04 0.04 0.02 0.05 0.11 0.08 0.13 0.19 0.19 0.32 0.33 0.23 0.26 0.19 0.10 0.07 0.02 0.00 0.00 0.00 0.00 0.00 0.00
0.02 0.02 0.02 0.02 0.02 0.01 0.01 0.01 0.01 0.01 0.01 0.00 0.00 0.04 0.04 0.04 0.01 0.00 0.00 0.00 0.04 0.11 0.04 0.07 0.07 0.03 0.04 0.05 0.12 0.17 0.20 0.18 0.20 0.24 0.19 0.22 0.12 0.08 0.04 0.00 0.00 0.00 0.00 0.00 0.00
0.03 0.02 0.02 0.02 0.02 0.02 0.01 0.01 0.01 0.01 0.01 0.01 0.01 0.03 0.03 0.02 0.01 0.00 0.00 0.00 0.00 0.02 0.05 0.09 0.06 0.07 0.04 0.03 0.09 0.07 0.15 0.21 0.21 0.19 0.21 0.19 0.13 0.08 0.04 0.00 0.00 0.00 0.00 0.00 0.00
0.02 0.02 0.02 0.02 0.02 0.01 0.01 0.00 0.00 0.00 0.00 0.00 0.02 0.03 0.03 0.00 0.00 0.00 0.00 0.00 0.00 0.04 0.07 0.06 0.15 0.18 0.05 0.03 0.03 0.08 0.15 0.10 0.14 0.18 0.15 0.18 0.25 0.13 0.02 0.01 0.00 0.00 0.00 0.00 0.00
0.01 0.01 0.02 0.02 0.02 0.01 0.00 0.00 0.00 0.00 0.00 0.00 0.00 0.01 0.01 0.00 0.00 0.00 0.00 0.00 0.00 0.00 0.04 0.07 0.12 0.12 0.05 0.03 0.03 0.07 0.13 0.08 0.04 0.10 0.11 0.20 0.23 0.06 0.00 0.00 0.00 0.00 0.00 0.00 0.00
0.01 0.01 0.01 0.01 0.01 0.00 0.00 0.00 0.00 0.00 0.00 0.00 0.01 0.01 0.00 0.00 0.00 0.00 0.00 0.00 0.00 0.00 0.01 0.04 0.07 0.09 0.08 0.05 0.07 0.06 0.06 0.04 0.03 0.04 0.04 0.07 0.09 0.06 0.02 0.00 0.00 0.00 0.00 0.00 0.00
0.01 0.01 0.01 0.00 0.00 0.00 0.00 0.00 0.00 0.00 0.00 0.01 0.01 0.01 0.00 0.00 0.00 0.00 0.00 0.00 0.00 0.00 0.01 0.03 0.02 0.03 0.09 0.09 0.06 0.03 0.01 0.02 0.02 0.03 0.05 0.04 0.02 0.02 0.01 0.00 0.00 0.00 0.00 0.00 0.00
0.01 0.01 0.01 0.00 0.00 0.00 0.00 0.00 0.00 0.00 0.00 0.00 0.00 0.00 0.00 0.00 0.00 0.00 0.00 0.00 0.00 0.00 0.00 0.00 0.02 0.01 0.00 0.01 0.04 0.03 0.01 0.02 0.05 0.09 0.09 0.05 0.05 0.01 0.01 0.00 0.00 0.00 0.00 0.00 0.00
0.01 0.01 0.00 0.00 0.00 0.00 0.00 0.00 0.00 0.00 0.00 0.00 0.00 0.00 0.00 0.00 0.00 0.00 0.00 0.00 0.00 0.00 0.00 0.02 0.01 0.00 0.00 0.01 0.04 0.11 0.10 0.03 0.02 0.05 0.14 0.07 0.04 0.03 0.01 0.00 0.00 0.00 0.00 0.00 0.00
0.01 0.01 0.01 0.00 0.00 0.00 0.00 0.00 0.00 0.00 0.01 0.00 0.00 0.00 0.00 0.00 0.00 0.00 0.00 0.00 0.00 0.00 0.00 0.00 0.00 0.00 0.00 0.00 0.01 0.01 0.07 0.03 0.01 0.01 0.10 0.13 0.10 0.04 0.00 0.00 0.00 0.00 0.00 0.00 0.00
0.01 0.01 0.01 0.00 0.00 0.00 0.00 0.00 0.00 0.00 0.01 0.00 0.00 0.00 0.00 0.00 0.00 0.00 0.00 0.00 0.00 0.00 0.00 0.00 0.00 0.01 0.00 0.01 0.01 0.01 0.00 0.01 0.02 0.04 0.02 0.05 0.03 0.00 0.00 0.00 0.00 0.00 0.00 0.00 0.00
0.01 0.01 0.01 0.01 0.01 0.00 0.00 0.00 0.00 0.01 0.00 0.00 0.00 0.00 0.00 0.00 0.00 0.00 0.00 0.00 0.00 0.00 0.00 0.00 0.00 0.01 0.02 0.01 0.01 0.01 0.01 0.01 0.04 0.07 0.08 0.02 0.04 0.00 0.00 0.00 0.00 0.00 0.00 0.00 0.00
0.01 0.00 0.02 0.01 0.01 0.00 0.00 0.00 0.02 0.04 0.02 0.00 0.00 0.00 0.00 0.00 0.00 0.00 0.00 0.00 0.00 0.00 0.00 0.00 0.01 0.00 0.00 0.00 0.01 0.02 0.07 0.09 0.07 0.15 0.31 0.02 0.00 0.00 0.00 0.00 0.00 0.00 0.00 0.00 0.00
0.01 0.00 0.01 0.00 0.00 0.00 0.01 0.02 0.06 0.05 0.00 0.00 0.00 0.00 0.00 0.00 0.00 0.00 0.00 0.00 0.00 0.00 0.01 0.00 0.00 0.00 0.00 0.01 0.04 0.14 0.24 0.43 0.43 0.36 0.15 0.00 0.00 0.00 0.00 0.00 0.00 0.00 0.00 0.00 0.00
0.01 0.00 0.00 0.00 0.00 0.00 0.02 0.07 0.08 0.00 0.00 0.00 0.00 0.00 0.00 0.00 0.00 0.00 0.00 0.00 0.00 0.00 0.00 0.00 0.00 0.00 0.00 0.01 0.04 0.10 0.13 0.25 0.16 0.05 0.00 0.00 0.00 0.00 0.00 0.00 0.00 0.00 0.00 0.00 0.00
0.02 0.00 0.00 0.00 0.00 0.02 0.14 0.14 0.02 0.02 0.03 0.02 0.00 0.00 0.00 0.00 0.00 0.00 0.00 0.00 0.00 0.00 0.00 0.00 0.00 0.00 0.00 0.00 0.02 0.12 0.15 0.03 0.07 0.02 0.00 0.00 0.00 0.00 0.00 0.00 0.00 0.00 0.00 0.00 0.00
0.05 0.02 0.00 0.00 0.02 0.11 0.30 0.13 0.08 0.06 0.02 0.03 0.07 0.02 0.03 0.04 0.07 0.04 0.01 0.00 0.00 0.00 0.00 0.00 0.00 0.00 0.00 0.00 0.03 0.06 0.07 0.14 0.32 0.16 0.01 0.00 0.00 0.00 0.00 0.00 0.00 0.00 0.00 0.00 0.00
0.06 0.05 0.01 0.01 0.09 0.16 0.29 0.15 0.18 0.14 0.09 0.04 0.05 0.14 0.06 0.06 0.09 0.15 0.12 0.03 0.01 0.00 0.00 0.00 0.01 0.00 0.00 0.00 0.01 0.03 0.18 0.31 0.23 0.09 0.02 0.00 0.00 0.00 0.00 0.00 0.00 0.00 0.00 0.00 0.00
0.13 0.11 0.03 0.08 0.17 0.17 0.14 0.11 0.20 0.15 0.04 0.04 0.12 0.22 0.16 0.09 0.15 0.08 0.08 0.05 0.08 0.05 0.02 0.01 0.04 0.01 0.00 0.00 0.00 0.00 0.02 0.09 0.09 0.14 0.02 0.00 0.00 0.00 0.00 0.00 0.00 0.00 0.00 0.00 0.00
0.47 0.17 0.06 0.15 0.24 0.16 0.14 0.07 0.07 0.05 0.03 0.05 0.07 0.09 0.12 0.06 0.18 0.06 0.05 0.05 0.05 0.07 0.12 0.10 0.18 0.06 0.01 0.00 0.00 0.00 0.00 0.02 0.03 0.02 0.02 0.04 0.00 0.00 0.00 0.00 0.00 0.00 0.00 0.00 0.00
0.75 0.41 0.21 0.40 0.43 0.62 0.38 0.12 0.03 0.02 0.03 0.08 0.07 0.04 0.03 0.01 0.03 0.10 0.01 0.00 0.01 0.02 0.08 0.18 0.13 0.02 0.01 0.00 0.00 0.00 0.00 0.00 0.01 0.08 0.03 0.01 0.00 0.00 0.00 0.00 0.00 0.00 0.00 0.00 0.00
0.76 0.43 0.36 0.43 0.33 0.29 0.29 0.32 0.10 0.03 0.09 0.09 0.09 0.04 0.19 0.16 0.02 0.00 0.00 0.00 0.00 0.00 0.06 0.22 0.11 0.02 0.00 0.00 0.00 0.00 0.01 0.01 0.00 0.00 0.00 0.00 0.00 0.00 0.00 0.00 0.00 0.00 0.00 0.00 0.00
0.89 0.82 0.57 0.29 0.16 0.23 0.27 0.25 0.17 0.15 0.20 0.10 0.09 0.08 0.03 0.11 0.07 0.04 0.01 0.00 0.02 0.01 0.03 0.15 0.14 0.02 0.01 0.00 0.00 0.00 0.00 0.00 0.00 0.00 0.00 0.00 0.00 0.00 0.00 0.00 0.00 0.00 0.00 0.00 0.00
0.84 0.78 1.18 0.47 0.20 0.32 0.29 0.26 0.18 0.10 0.12 0.04 0.05 0.08 0.04 0.01 0.00 0.00 0.00 0.00 0.03 0.04 0.04 0.11 0.12 0.10 0.04 0.00 0.00 0.01 0.00 0.00 0.00 0.00 0.00 0.00 0.00 0.00 0.00 0.00 0.00 0.00 0.00 0.00 0.00